This is the latest recevied weather packets stored in our database for station/object K7KAZ. If no packets are shown the sender has not sent any weather packets the latest 10 day(s).
| Time | Temp. | Humidity | Pressure | Rain* | Wind** | Luminosity | Snow |
|---|---|---|---|---|---|---|---|
| 1777914476 | 20.56° C | 53% | 1015.8 hPa | 0 mm | - | 176 W/m² | - |
| 1777914173 | 20.56° C | 51% | 1015.7 hPa | 0 mm | - | 187 W/m² | - |
| 1777913868 | 20.56° C | 51% | 1015.6 hPa | 0 mm | - | 210 W/m² | - |
| 1777913565 | 20.56° C | 52% | 1015.8 hPa | 0 mm | - | 198 W/m² | - |
| 1777913261 | 21.11° C | 51% | 1015.9 hPa | 0 mm | - | 192 W/m² | - |
| 1777912959 | 21.11° C | 51% | 1015.7 hPa | 0 mm | - | 158 W/m² | - |
| 1777912654 | 20.56° C | 51% | 1015.9 hPa | 0 mm | - | 176 W/m² | - |
| 1777912351 | 21.11° C | 50% | 1015.8 hPa | 0 mm | - | 170 W/m² | - |
| 1777912047 | 21.11° C | 50% | 1015.9 hPa | 0 mm | - | 194 W/m² | - |
| 1777911743 | 21.67° C | 48% | 1015.6 hPa | 0 mm | - | 206 W/m² | - |
| 1777911440 | 21.11° C | 49% | 1015.7 hPa | 0 mm | - | 168 W/m² | - |
| 1777911137 | 21.11° C | 49% | 1015.6 hPa | 0 mm | - | 150 W/m² | - |
| 1777910834 | 21.11° C | 48% | 1015.5 hPa | 0 mm | - | 163 W/m² | - |
| 1777910531 | 21.11° C | 48% | 1015.9 hPa | 0 mm | - | 181 W/m² | - |
| 1777910228 | 21.11° C | 47% | 1015.3 hPa | 0 mm | - | 182 W/m² | - |
| 1777909925 | 21.11° C | 47% | 1015.7 hPa | 0 mm | - | 171 W/m² | - |
| 1777909622 | 21.67° C | 46% | 1015.5 hPa | 0 mm | - | 147 W/m² | - |
| 1777909319 | 21.67° C | 45% | 1015.6 hPa | 0 mm | - | 132 W/m² | - |
| 1777909017 | 21.67° C | 45% | 1015.3 hPa | 0 mm | - | 133 W/m² | - |
| 1777908714 | 21.67° C | 45% | 1015 hPa | 0 mm | - | 113 W/m² | - |
| 1777908411 | 21.67° C | 44% | 1015.2 hPa | 0 mm | - | 105 W/m² | - |
| 1777908108 | 21.67° C | 44% | 1015 hPa | 0 mm | - | 113 W/m² | - |
| 1777907804 | 21.67° C | 44% | 1015.5 hPa | 0 mm | - | 124 W/m² | - |
| 1777907499 | 21.67° C | 43% | 1015.2 hPa | 0 mm | - | 121 W/m² | - |
| 1777907196 | 21.67° C | 43% | 1015.1 hPa | 0 mm | - | 104 W/m² | - |
* Rain latest hour (hover to see other rain measurements)
** Current wind speed in m/s (hover to see current wind gust speed)